Weather in Valka

Latvia     57°46′30″N   26°01′14″E
temp.,
°C
wind,
m/s
gust,
m/s
humid.,
%
clouds,
%
prec.,
mm/h
press.,
hPa
HPBL,
m
1 july, fri
fri100:00+20ese2767100 0.0 1020177
03:00+17ese2770100 0.0 1021122
06:00+17ese266897 0.0 1020141
09:00+22ese3451100 0.0 1021339
12:00+27se3437100 0.0 10201091
15:00+29se3329100 0.0 10191468
18:00+28se3434100 0.0 10191170
21:00+22ese376432 0.0 1019173
2 july, sat
sat200:00+19se247286 0.0 102072
03:00+17sse247675 0.0 102062
06:00+18se277669 0.0 1020150
09:00+24sse375594 0.0 1020443
12:00+29s4543100 0.0 10201654
15:00+31s453498 0.0 10192478
18:00+31ssw453439 0.0 10172462
21:00+25s226097 0.0 101750
3 july, sun
sun300:00+18nw239789 0.0 101975
03:00+17w2599100 0.0 1019129
06:00+18nw249698 0.1 1019278
09:00+19nnw2392100 0.3 1019351
12:00+21nw2383100 0.1 1019598
15:00+21w2482100 0.5 1019466
18:00+19wnw2576100 0.4 1019197
21:00+19nnw117292 0.5 101914
4 july, mon
mon400:00+16nw11758 0.0 101911
03:00+14nne12810 0.0 101913
06:00+15nne11790 0.0 101822
09:00+22e11505 0.0 1018500
12:00+26s124037 0.0 10171578
15:00+28ssw233678 0.0 10152249
18:00+23w2557100 0.0 1015140
21:00+20nne116916 0.0 101411
5 july, tue
tue500:00+19sw23690 0.0 101477
03:00+15wsw27925 0.0 1015149
06:00+15sw27945 0.0 1015259
09:00+19wsw4758100 0.0 1015743
12:00+23wsw58443 0.0 10151944
15:00+22w584654 0.0 10151981
18:00+20wsw365097 0.0 1015518
21:00+17wsw25645 0.0 1015177